Location: Unspecified
(0.0000°N, 0.0000°E)
Time: 07:51:02
(UTC+00:00)

Envisat - Pass Details

Date: 29 July 2021
Orbit: 764 x 766 km, 98.2° (Epoch: 31 July)

Event Time Altitude Azimuth Distance (km) Brightness Sun altitude
Rises 05:06:43 0° 5° (N) 3,213 6.6 -14.1°
Reaches altitude 10° 05:09:02 10° 2° (N) 2,290 5.7 -13.6°
Maximum altitude 05:14:00 61° 282° (WNW) 867 3.0 -12.4°
Drops below altitude 10° 05:19:00 10° 202° (SSW) 2,301 5.1 -11.2°
Sets 05:21:20 0° 199° (SSW) 3,229 5.9 -10.7°
